| time (UTC) | temp C | wind direction | speed KPH | gust KPH | rain 1hr cm | rain 24hr cm | rain mn cm | humidity % | barometer mb |
| 20260507212023 | 11 | 179 | 1.6 | 3.2 | 0.00 | 0.00 | 0.00 | 90 | 1021.9 |
| 20260507211029 | 11 | 141 | 1.6 | 4.8 | 0.00 | 0.00 | 0.00 | 90 | 1022.1 |
| 20260507210029 | 11 | 183 | 0.0 | 1.6 | 0.00 | 0.00 | 0.00 | 89 | 1022.1 |
| 20260507205020 | 11 | 190 | 0.0 | 3.2 | 0.00 | 0.00 | 0.00 | 89 | 1022.2 |
| 20260507204033 | 11 | 179 | 0.0 | 1.6 | 0.00 | 0.00 | 0.00 | 89 | 1022.1 |
| 20260507203018 | 11 | 170 | 3.2 | 6.4 | 0.00 | 0.00 | 0.00 | 89 | 1022.0 |
| 20260507202021 | 11 | 152 | 3.2 | 6.4 | 0.00 | 0.00 | 0.00 | 89 | 1021.9 |
| 20260507201030 | 11 | 64 | 0.0 | 3.2 | 0.00 | 0.00 | 0.00 | 88 | 1021.9 |
| 20260507200024 | 11 | 119 | 3.2 | 6.4 | 0.00 | 0.00 | 0.00 | 86 | 1021.8 |
| 20260507195031 | 12 | 164 | 4.8 | 11.3 | 0.00 | 0.00 | 0.00 | 84 | 1021.8 |
| 20260507194046 | 11 | 145 | 3.2 | 6.4 | 0.00 | 0.00 | 0.00 | 85 | 1021.7 |
| 20260507193029 | 11 | 155 | 3.2 | 4.8 | 0.00 | 0.00 | 0.00 | 87 | 1021.5 |
| 20260507192029 | 11 | 148 | 6.4 | 11.3 | 0.00 | 0.00 | 0.00 | 87 | 1021.2 |
| 20260507191030 | 12 | 148 | 4.8 | 9.7 | 0.00 | 0.00 | 0.00 | 86 | 1021.2 |
| 20260507190023 | 12 | 159 | 4.8 | 11.3 | 0.00 | 0.00 | 0.00 | 83 | 1021.0 |
| 20260507185028 | 12 | 145 | 3.2 | 11.3 | 0.00 | 0.00 | 0.00 | 82 | 1021.0 |
| 20260507184032 | 12 | 157 | 1.6 | 4.8 | 0.00 | 0.00 | 0.00 | 78 | 1021.0 |
| 20260507183034 | 13 | 148 | 4.8 | 6.4 | 0.00 | 0.00 | 0.00 | 76 | 1021.0 |
| 20260507182039 | 13 | 324 | 3.2 | 4.8 | 0.00 | 0.00 | 0.00 | 75 | 1020.7 |
| 20260507181030 | 12 | 325 | 4.8 | 9.7 | 0.00 | 0.00 | 0.00 | 76 | 1020.6 |
| 20260507180017 | 13 | 329 | 6.4 | 12.9 | 0.00 | 0.00 | 0.00 | 75 | 1020.5 |
| 20260507175028 | 13 | 328 | 8.0 | 12.9 | 0.00 | 0.00 | 0.00 | 72 | 1020.3 |
| 20260507174032 | 13 | 328 | 6.4 | 14.5 | 0.00 | 0.00 | 0.00 | 71 | 1020.0 |
| 20260507173034 | 13 | 334 | 8.0 | 14.5 | 0.00 | 0.00 | 0.00 | 70 | 1019.9 |
| 20260507172019 | 13 | 324 | 6.4 | 12.9 | 0.00 | 0.00 | 0.00 | 70 | 1019.9 |
| 20260507171030 | 13 | 333 | 6.4 | 14.5 | 0.00 | 0.00 | 0.00 | 70 | 1019.9 |
| 20260507170028 | 13 | 282 | 3.2 | 11.3 | 0.00 | 0.00 | 0.00 | 71 | 1019.8 |
| 20260507165019 | 13 | 326 | 4.8 | 11.3 | 0.00 | 0.00 | 0.00 | 71 | 1019.8 |
| 20260507164020 | 14 | 326 | 6.4 | 11.3 | 0.00 | 0.00 | 0.00 | 70 | 1019.7 |
| 20260507163034 | 14 | 16 | 4.8 | 12.9 | 0.00 | 0.00 | 0.00 | 70 | 1019.6 |
| 20260507162041 | 15 | 351 | 3.2 | 6.4 | 0.00 | 0.00 | 0.00 | 69 | 1019.5 |
| 20260507161033 | 14 | 322 | 3.2 | 6.4 | 0.00 | 0.00 | 0.00 | 69 | 1019.4 |
| 20260507160017 | 15 | 335 | 8.0 | 12.9 | 0.00 | 0.00 | 0.00 | 69 | 1019.3 |
| 20260507155021 | 15 | 339 | 6.4 | 11.3 | 0.00 | 0.00 | 0.00 | 66 | 1019.2 |
| 20260507154020 | 16 | 338 | 4.8 | 12.9 | 0.00 | 0.00 | 0.00 | 63 | 1019.1 |
| 20260507153034 | 15 | 331 | 8.0 | 14.5 | 0.00 | 0.00 | 0.00 | 65 | 1019.1 |
| 20260507152024 | 15 | 340 | 6.4 | 12.9 | 0.00 | 0.00 | 0.00 | 65 | 1019.1 |
| 20260507151032 | 15 | 338 | 6.4 | 11.3 | 0.00 | 0.00 | 0.00 | 64 | 1019.2 |
| 20260507150021 | 16 | 323 | 6.4 | 12.9 | 0.00 | 0.00 | 0.00 | 64 | 1019.1 |
| 20260507145030 | 15 | 333 | 4.8 | 6.4 | 0.00 | 0.00 | 0.00 | 65 | 1019.1 |
| 20260507144023 | 15 | 349 | 1.6 | 4.8 | 0.00 | 0.00 | 0.00 | 67 | 1019.3 |
| 20260507143028 | 14 | 52 | 3.2 | 6.4 | 0.00 | 0.00 | 0.00 | 70 | 1019.3 |
| 20260507142027 | 14 | 4 | 4.8 | 14.5 | 0.00 | 0.00 | 0.00 | 70 | 1019.3 |
| 20260507141029 | 13 | 336 | 3.2 | 9.7 | 0.00 | 0.00 | 0.00 | 71 | 1019.3 |
| 20260507140017 | 13 | 317 | 8.0 | 16.1 | 0.00 | 0.00 | 0.00 | 72 | 1019.2 |
| 20260507135027 | 13 | 321 | 11.3 | 22.5 | 0.00 | 0.00 | 0.00 | 71 | 1019.2 |
| 20260507134037 | 14 | 329 | 14.5 | 24.1 | 0.00 | 0.00 | 0.00 | 67 | 1019.2 |
| 20260507133024 | 14 | 331 | 12.9 | 17.7 | 0.00 | 0.00 | 0.00 | 68 | 1019.2 |
| 20260507132033 | 14 | 327 | 14.5 | 22.5 | 0.00 | 0.00 | 0.00 | 67 | 1019.2 |
| 20260507131024 | 15 | 334 | 12.9 | 20.9 | 0.00 | 0.00 | 0.00 | 66 | 1019.1 |
| 20260507130020 | 15 | 329 | 14.5 | 27.4 | 0.00 | 0.00 | 0.00 | 63 | 1019.0 |
| 20260507125051 | 16 | 332 | 12.9 | 25.7 | 0.00 | 0.00 | 0.00 | 61 | 1018.9 |
| 20260507124023 | 15 | 307 | 4.8 | 14.5 | 0.00 | 0.00 | 0.00 | 63 | 1018.9 |
| 20260507123058 | 15 | 311 | 3.2 | 4.8 | 0.00 | 0.00 | 0.00 | 67 | 1018.7 |
| 20260507122104 | 13 | 139 | 3.2 | 9.7 | 0.00 | 0.00 | 0.00 | 70 | 1018.8 |
| 20260507121031 | 13 | 146 | 4.8 | 12.9 | 0.00 | 0.00 | 0.00 | 67 | 1018.7 |
| 20260507120032 | 13 | 169 | 6.4 | 16.1 | 0.00 | 0.00 | 0.00 | 73 | 1018.6 |
| 20260507115047 | 12 | 171 | 6.4 | 11.3 | 0.00 | 0.00 | 0.00 | 81 | 1018.8 |
| 20260507114032 | 12 | 170 | 4.8 | 11.3 | 0.00 | 0.00 | 0.00 | 83 | 1019.0 |
| 20260507113016 | 12 | 155 | 6.4 | 11.3 | 0.00 | 0.00 | 0.00 | 81 | 1019.1 |
| 20260507112024 | 12 | 145 | 6.4 | 9.7 | 0.00 | 0.00 | 0.00 | 80 | 1019.0 |
| 20260507111032 | 12 | 168 | 4.8 | 11.3 | 0.00 | 0.00 | 0.00 | 81 | 1019.2 |
| 20260507110033 | 12 | 153 | 4.8 | 11.3 | 0.00 | 0.00 | 0.00 | 76 | 1019.1 |
| 20260507105030 | 12 | 151 | 9.7 | 14.5 | 0.00 | 0.00 | 0.00 | 78 | 1019.1 |
| 20260507104024 | 13 | 153 | 8.0 | 11.3 | 0.00 | 0.00 | 0.00 | 73 | 1019.1 |
| 20260507103027 | 13 | 165 | 3.2 | 6.4 | 0.00 | 0.00 | 0.00 | 69 | 1019.1 |
| 20260507102032 | 13 | 93 | 1.6 | 3.2 | 0.00 | 0.00 | 0.00 | 66 | 1019.0 |
| 20260507101024 | 13 | 27 | 1.6 | 4.8 | 0.00 | 0.00 | 0.00 | 69 | 1019.0 |
| 20260507100023 | 13 | 48 | 1.6 | 4.8 | 0.00 | 0.00 | 0.00 | 71 | 1019.1 |
| 20260507095028 | 13 | 25 | 4.8 | 6.4 | 0.00 | 0.00 | 0.00 | 72 | 1019.1 |
| 20260507094023 | 13 | 343 | 6.4 | 12.9 | 0.00 | 0.00 | 0.00 | 68 | 1019.2 |
| 20260507093114 | 13 | 323 | 9.7 | 16.1 | 0.00 | 0.00 | 0.00 | 68 | 1019.1 |
| 20260507092020 | 14 | 335 | 6.4 | 20.9 | 0.00 | 0.00 | 0.00 | 67 | 1019.0 |
| 20260507091029 | 13 | 333 | 6.4 | 16.1 | 0.00 | 0.00 | 0.00 | 70 | 1019.1 |
| 20260507090023 | 12 | 327 | 8.0 | 14.5 | 0.00 | 0.00 | 0.00 | 72 | 1019.1 |
| 20260507085016 | 12 | 325 | 9.7 | 16.1 | 0.00 | 0.00 | 0.00 | 74 | 1019.1 |
| 20260507084053 | 12 | 324 | 11.3 | 17.7 | 0.00 | 0.00 | 0.00 | 74 | 1018.9 |
| 20260507083028 | 12 | 336 | 6.4 | 14.5 | 0.00 | 0.00 | 0.00 | 79 | 1019.0 |
| 20260507082023 | 12 | 336 | 6.4 | 17.7 | 0.00 | 0.00 | 0.00 | 77 | 1018.8 |
| 20260507081031 | 13 | 328 | 11.3 | 17.7 | 0.00 | 0.00 | 0.00 | 72 | 1018.7 |
| 20260507080030 | 13 | 328 | 9.7 | 20.9 | 0.00 | 0.00 | 0.00 | 71 | 1018.6 |
| 20260507075031 | 12 | 319 | 8.0 | 20.9 | 0.00 | 0.00 | 0.00 | 73 | 1018.5 |
| 20260507074023 | 12 | 357 | 4.8 | 11.3 | 0.00 | 0.00 | 0.00 | 72 | 1018.6 |
| 20260507073032 | 12 | 327 | 4.8 | 6.4 | 0.00 | 0.00 | 0.00 | 75 | 1018.6 |
| 20260507072032 | 12 | 336 | 3.2 | 4.8 | 0.00 | 0.00 | 0.00 | 75 | 1018.4 |
| 20260507071039 | 12 | 34 | 0.0 | 1.6 | 0.00 | 0.00 | 0.00 | 75 | 1018.4 |
| 20260507070021 | 11 | 354 | 1.6 | 4.8 | 0.00 | 0.00 | 0.00 | 75 | 1018.2 |
| 20260507065050 | 11 | 359 | 1.6 | 3.2 | 0.00 | 0.00 | 0.00 | 74 | 1018.2 |
| 20260507064023 | 11 | 331 | 1.6 | 1.6 | 0.00 | 0.00 | 0.00 | 77 | 1018.3 |
| 20260507063029 | 10 | 69 | 0.0 | 3.2 | 0.00 | 0.00 | 0.00 | 79 | 1018.3 |
| 20260507062028 | 11 | 21 | 1.6 | 3.2 | 0.00 | 0.00 | 0.00 | 77 | 1018.3 |
| 20260507061021 | 10 | 338 | 3.2 | 4.8 | 0.00 | 0.00 | 0.00 | 80 | 1018.2 |
| 20260507060041 | 10 | 314 | 1.6 | 3.2 | 0.00 | 0.00 | 0.00 | 80 | 1018.1 |
| 20260507055028 | 10 | 321 | 1.6 | 3.2 | 0.00 | 0.00 | 0.00 | 82 | 1018.1 |
| 20260507054044 | 10 | 325 | 3.2 | 3.2 | 0.00 | 0.00 | 0.00 | 82 | 1018.0 |
| 20260507053028 | 10 | 0.0 | 0.0 | 0.00 | 0.00 | 0.00 | 82 | 1017.8 | |
| 20260507052023 | 10 | 176 | 1.6 | 3.2 | 0.00 | 0.00 | 0.00 | 82 | 1017.7 |
| 20260507051031 | 9 | 0.0 | 0.0 | 0.00 | 0.00 | 0.00 | 83 | 1017.8 | |
| 20260507050052 | 9 | 324 | 0.0 | 1.6 | 0.00 | 0.00 | 0.00 | 83 | 1017.8 |
| 20260507045029 | 9 | 196 | 0.0 | 1.6 | 0.00 | 0.00 | 0.00 | 82 | 1017.7 |
| 20260507044044 | 9 | 158 | 1.6 | 3.2 | 0.00 | 0.00 | 0.00 | 83 | 1017.6 |
| 20260507043032 | 8 | 282 | 0.0 | 1.6 | 0.00 | 0.00 | 0.00 | 84 | 1017.4 |
| 20260507042033 | 8 | 212 | 1.6 | 3.2 | 0.00 | 0.00 | 0.00 | 85 | 1017.2 |
| 20260507041015 | 8 | 94 | 1.6 | 3.2 | 0.00 | 0.00 | 0.00 | 86 | 1017.2 |
| 20260507040022 | 8 | 196 | 1.6 | 1.6 | 0.00 | 0.00 | 0.00 | 85 | 1017.0 |
| 20260507035032 | 8 | 122 | 3.2 | 4.8 | 0.00 | 0.00 | 0.00 | 86 | 1017.0 |
| 20260507034021 | 8 | 2 | 1.6 | 1.6 | 0.00 | 0.00 | 0.00 | 85 | 1016.9 |
| 20260507033028 | 8 | 329 | 1.6 | 1.6 | 0.00 | 0.00 | 0.00 | 86 | 1016.8 |
| 20260507032052 | 8 | 329 | 0.0 | 1.6 | 0.00 | 0.00 | 0.00 | 84 | 1017.0 |
| 20260507031019 | 8 | 327 | 1.6 | 3.2 | 0.00 | 0.00 | 0.00 | 84 | 1016.9 |
| 20260507030021 | 8 | 329 | 0.0 | 3.2 | 0.00 | 0.00 | 0.00 | 84 | 1016.9 |
| 20260507025016 | 8 | 0.0 | 0.0 | 0.00 | 0.00 | 0.00 | 85 | 1016.8 | |
| 20260507024023 | 8 | 329 | 0.0 | 1.6 | 0.00 | 0.00 | 0.00 | 84 | 1016.7 |
| 20260507023032 | 8 | 0.0 | 0.0 | 0.00 | 0.00 | 0.00 | 83 | 1016.7 | |
| 20260507022032 | 8 | 0.0 | 0.0 | 0.00 | 0.00 | 0.00 | 83 | 1016.8 | |
| 20260507021019 | 8 | 331 | 1.6 | 3.2 | 0.00 | 0.00 | 0.00 | 83 | 1016.7 |
| 20260507020032 | 8 | 331 | 1.6 | 3.2 | 0.00 | 0.00 | 0.00 | 82 | 1016.6 |
| 20260507015039 | 8 | 329 | 1.6 | 3.2 | 0.00 | 0.00 | 0.00 | 81 | 1016.5 |
| 20260507014020 | 8 | 0.0 | 0.0 | 0.00 | 0.00 | 0.00 | 81 | 1016.4 | |
| 20260507013029 | 9 | 0.0 | 0.0 | 0.00 | 0.00 | 0.00 | 81 | 1016.4 | |
| 20260507012044 | 9 | 320 | 1.6 | 3.2 | 0.00 | 0.00 | 0.00 | 80 | 1016.4 |
| 20260507011019 | 8 | 0.0 | 0.0 | 0.00 | 0.00 | 0.00 | 81 | 1016.3 | |
| 20260507010021 | 9 | 319 | 0.0 | 1.6 | 0.00 | 0.00 | 0.00 | 81 | 1016.3 |
| 20260507005029 | 9 | 323 | 0.0 | 1.6 | 0.00 | 0.00 | 0.00 | 82 | 1016.3 |
| 20260507004023 | 9 | 39 | 0.0 | 3.2 | 0.00 | 0.00 | 0.00 | 82 | 1016.0 |
| 20260507003027 | 10 | 343 | 0.0 | 1.6 | 0.00 | 0.00 | 0.00 | 79 | 1015.9 |
| 20260507002032 | 10 | 71 | 0.0 | 1.6 | 0.00 | 0.00 | 0.00 | 79 | 1016.0 |
| 20260507001039 | 10 | 30 | 0.0 | 1.6 | 0.00 | 0.00 | 0.00 | 77 | 1016.0 |
| 20260507000022 | 10 | 318 | 0.0 | 3.2 | 0.00 | 0.00 | 0.00 | 75 | 1016.0 |
| 20260506235029 | 11 | 324 | 1.6 | 3.2 | 0.00 | 0.00 | 0.00 | 75 | 1015.9 |
| 20260506234023 | 10 | 340 | 1.6 | 3.2 | 0.00 | 0.00 | 0.00 | 76 | 1016.0 |
| 20260506233034 | 11 | 341 | 1.6 | 3.2 | 0.00 | 0.00 | 0.00 | 76 | 1016.0 |
| 20260506232032 | 11 | 342 | 0.0 | 1.6 | 0.00 | 0.00 | 0.00 | 76 | 1015.9 |
| 20260506231036 | 11 | 236 | 1.6 | 3.2 | 0.00 | 0.00 | 0.00 | 76 | 1016.0 |
| 20260506230040 | 11 | 87 | 1.6 | 3.2 | 0.00 | 0.00 | 0.00 | 75 | 1015.9 |
| 20260506225029 | 11 | 0.0 | 0.0 | 0.00 | 0.00 | 0.00 | 69 | 1015.9 | |
| 20260506224023 | 11 | 347 | 0.0 | 1.6 | 0.00 | 0.00 | 0.00 | 69 | 1015.7 |
| 20260506223031 | 12 | 347 | 0.0 | 1.6 | 0.00 | 0.00 | 0.00 | 69 | 1015.6 |
| 20260506222046 | 11 | 342 | 1.6 | 3.2 | 0.00 | 0.00 | 0.00 | 71 | 1015.7 |
| 20260506221029 | 11 | 24 | 0.0 | 1.6 | 0.00 | 0.00 | 0.00 | 73 | 1015.5 |
| 20260506220024 | 11 | 24 | 0.0 | 1.6 | 0.00 | 0.00 | 0.00 | 73 | 1015.3 |
| 20260506215016 | 12 | 64 | 1.6 | 3.2 | 0.00 | 0.00 | 0.00 | 70 | 1015.3 |
| 20260506214024 | 12 | 308 | 1.6 | 4.8 | 0.00 | 0.00 | 0.00 | 67 | 1015.2 |
| 20260506213031 | 12 | 324 | 4.8 | 6.4 | 0.00 | 0.00 | 0.00 | 68 | 1015.1 |